Tracking 28790 objects as of 19-Apr-2024
HD Live streaming from Space Station
objects crossing your sky now

METEOR 2-5 DEB

Track METEOR 2-5 DEB now!
10-day predictions


NORAD ID: 35506
Int'l Code: 1979-095Z
Perigee: 763.5 km
Apogee: 775.8 km
Inclination: 81.2 °
Period: 100.1 minutes
Semi major axis: 7140 km
RCS: 0.0035 m2 (small)
Launch date: October 31, 1979
Source: Commonwealth of Independent States (former USSR) (CIS)
Launch site: PLESETSK MISSILE AND SPACE COMPLEX (PKMTR)

Note: This is SATELLITE DEBRIS
Your satellite tracking list
Your tracking list is empty




NASA's NSSDC Master Catalog

Two Line Element Set (TLE):
1 35506U 79095Z   24107.30725791  .00010556  00000-0  34279-2 0  9991
2 35506  81.1895 130.4057 0008572 249.0047 111.0223 14.38782031174392
Source of the keplerian elements: AFSPC